Temperature
19 19 19 19 19 19 19 19 18 18 18 18 18 18 18 18 18 18 18 18 18 18 18 18 18 18 18 18 18 18 18 17 17 17 17 17 17 17 17 17 16 16 16
19 19 19 19 19 19 19 19 19 18 18 18 18 19 18 18 18 18 18 18 18 18 18 18 18 18 18 18 18 18 18 17 17 17 17 17 17 17 17 17 16 16 16
19 19 19 19 19 19 19 18 18 18 18 19 19 19 18 18 18 18 18 18 18 18 18 18 18 18 18 18 18 17 17 17 17 17 17 17 17 17 17 16 16 16 16
19 19 19 19 19 18 18 18 18 18 18 18 18 19 18 18 18 18 18 18 18 18 18 18 18 18 18 18 17 17 17 17 17 17 17 17 17 17 17 16 16 16 16
19 19 19 19 19 18 18 18 18 18 18 18 18 18 18 18 18 18 18 18 18 18 18 18 17 17 18 18 17 17 17 17 17 17 17 17 17 17 16 16 16 16 16
19 19 19 19 19 18 18 18 18 18 18 18 18 18 18 18 18 18 18 18 18 18 18 18 18 18 17 17 17 17 17 17 17 17 17 17 17 16 16 16 16 16 16
19 19 19 19 18 18 18 18 18 18 18 18 18 18 18 18 18 18 18 18 18 18 18 18 18 17 17 17 17 17 17 17 17 17 17 17 16 16 16 16 16 16 16
19 19 19 19 19 18 18 18 18 18 18 18 18 18 18 18 18 18 18 18 18 18 17 17 17 17 17 17 17 17 17 17 17 17 16 16 16 16 16 16 16 16 16
19 19 18 19 18 18 18 18 18 18 18 18 18 17 17 17 17 18 18 17 17 17 17 17 17 17 17 17 17 17 17 17 17 16 16 16 16 16 16 16 16 16 15
19 19 18 18 18 18 18 18 18 18 18 18 17 17 17 17 17 17 17 17 17 17 17 17 17 17 17 17 17 17 17 17 16 16 16 16 16 16 16 16 16 16 16
19 18 18 18 18 18 18 18 18 18 18 17 17 17 17 17 17 16 17 17 17 17 17 17 17 16 16 16 16 16 16 16 16 16 16 16 16 16 16 16 16 16 16
18 18 18 18 18 18 18 18 17 17 17 17 17 17 17 17 17 16 16 16 17 17 17 17 16 16 16 16 16 16 16 16 16 16 16 16 16 16 16 16 15 15 15
18 18 18 18 17 17 17 17 17 17 17 17 17 17 17 17 16 16 16 16 16 16 16 17 16 16 16 16 16 15 15 15 15 15 15 15 15 15 15 15 15 15 15
18 18 17 17 17 17 17 17 17 17 17 17 17 17 17 16 16 16 16 16 16 16 16 16 16 16 16 15 15 15 15 15 15 15 15 15 15 15 15 15 15 15 15
18 17 17 17 17 17 17 17 17 17 17 16 16 16 16 16 16 16 16 16 16 15 16 16 16 16 15 15 15 15 15 15 15 15 15 15 15 15 15 15 15 15 15
18 17 17 17 17 17 16 16 16 16 16 16 16 16 16 16 16 16 16 16 16 15 15 15 15 15 15 15 15 15 15 15 15 15 14 14 15 15 15 15 14 14 14
17 17 17 17 17 16 16 16 16 16 16 16 16 16 16 16 16 16 15 15 15 15 15 15 15 15 15 15 15 14 14 14 14 14 14 14 14 14 14 14 14 14 14
17 17 17 17 16 16 16 16 16 16 16 16 15 15 15 15 15 15 15 15 15 15 15 15 15 15 15 14 14 14 14 14 14 14 14 14 14 14 14 14 14 14 14
17 17 17 17 16 16 16 16 16 16 15 15 15 15 15 15 15 15 15 15 15 15 14 14 14 14 14 14 14 14 14 14 13 13 13 13 13 13 13 13 13 13 14
17 17 16 16 16 16 16 15 15 15 15 15 15 15 15 15 15 15 15 15 14 14 14 14 14 14 14 14 14 14 13 13 13 13 13 13 13 13 13 13 13 13 13
17 16 16 16 16 15 15 15 15 15 15 15 15 14 14 14 14 14 14 14 14 14 14 14 13 13 13 13 13 13 13 13 13 13 13 13 13 13 12 12 12 12 13
16 16 16 16 15 15 15 15 15 15 14 14 14 14 14 14 14 14 14 14 13 13 13 13 13 13 13 13 13 12 12 12 12 12 12 12 12 12 12 12 12 12 12
16 16 16 15 15 15 15 15 14 14 14 14 14 14 14 14 14 14 14 13 13 13 13 13 13 13 13 12 12 12 12 12 12 12 12 12 12 12 12 12 12 12 12
16 15 15 15 15 15 14 14 14 14 14 14 14 14 14 13 13 13 13 13 13 13 13 13 13 12 12 12 12 12 12 12 12 11 11 11 11 11 11 11 11 11 11
15 15 15 14 14 14 14 14 14 13 13 13 13 13 13 13 13 13 13 13 13 13 13 12 12 12 12 12 12 12 12 11 11 11 11 11 11 11 11 11 11 11 11
15 15 14 14 14 14 14 14 13 13 13 13 13 13 13 13 13 13 12 12 12 12 12 12 12 12 12 12 12 11 11 11 11 10 10 10 10 10 10 10 10 10 10
Wind_Speed
1 1 1 2 3 3 2 2 2 2 2 3 4 4 4 5 5 5 5 7 8 8 9 9 8 8 9 9 9 9 9 11 11 11 11 11 12 13 13 13 13 13 13
1 1 1 2 2 2 2 2 2 2 2 2 3 3 4 4 4 5 5 6 7 7 8 8 8 9 9 10 10 10 9 11 11 11 12 12 12 12 13 13 13 14 13
2 1 1 1 2 3 2 2 2 1 1 2 2 3 2 3 3 3 3 4 5 6 8 8 8 9 9 9 10 10 10 10 10 11 11 12 12 12 13 14 14 14 14
2 2 1 1 2 2 1 1 1 1 2 2 2 2 2 2 3 3 3 3 4 4 6 8 8 9 9 9 9 9 9 10 10 10 12 12 12 12 12 13 13 13 13
1 1 1 1 1 1 1 1 1 0 1 2 2 2 2 2 2 2 2 3 3 4 4 5 6 7 8 8 8 8 8 9 9 10 11 11 11 11 11 12 13 13 12
0 0 0 1 0 0 1 1 1 0 1 1 1 2 2 2 2 2 2 2 3 3 3 4 4 5 6 7 7 8 8 8 9 9 10 10 11 12 11 11 11 12 12
1 0 0 0 0 0 1 1 0 1 1 1 1 2 2 1 1 1 1 1 2 2 2 3 3 4 4 5 6 7 8 8 8 8 8 9 10 10 11 11 11 12 12
1 0 0 0 0 0 0 1 0 0 1 1 0 1 2 3 2 1 0 1 2 2 2 2 3 3 3 3 4 6 6 7 6 7 8 8 9 9 10 11 11 11 12
1 0 0 0 0 1 0 0 0 1 1 1 0 1 1 2 2 2 1 1 1 1 2 2 2 3 3 3 4 4 5 5 5 6 7 8 8 8 9 10 10 10 11
1 1 0 0 0 0 0 1 0 1 1 0 1 1 1 1 1 2 2 1 2 1 2 2 2 3 3 3 3 4 4 4 5 5 6 7 7 7 8 9 10 11 11
2 1 0 0 0 0 1 1 0 1 1 1 1 1 1 0 1 2 3 3 2 2 2 3 2 2 3 3 3 3 4 4 4 4 4 5 6 6 6 7 8 9 10
2 2 1 0 1 1 1 1 1 1 2 1 1 1 1 1 1 2 3 3 3 2 2 2 2 2 3 3 3 4 4 4 4 4 4 5 5 5 5 6 7 7 8
1 2 2 1 1 2 2 1 1 1 1 1 2 2 1 2 1 2 2 2 2 2 2 2 2 2 2 3 3 4 4 4 4 4 5 5 5 5 4 5 5 6 7
2 2 1 1 1 2 1 1 1 1 1 2 2 2 1 2 1 2 2 2 2 2 2 3 2 2 2 3 4 5 4 5 5 5 5 5 4 4 5 4 4 5 5
1 1 1 1 2 1 1 0 1 1 1 1 2 1 1 2 2 2 2 2 2 2 3 3 2 2 2 2 4 4 4 4 4 4 5 5 4 4 4 4 4 4 4
1 0 1 1 1 1 1 1 1 1 1 1 1 1 1 2 1 1 1 1 2 3 3 2 2 2 2 2 3 3 3 4 3 4 4 4 4 4 4 4 3 4 4
1 1 2 1 1 2 2 1 1 2 1 2 2 1 2 2 1 1 1 1 1 2 3 3 2 2 2 3 3 3 2 2 2 3 3 4 4 3 3 3 3 3 4
2 2 1 1 1 1 1 1 2 2 2 2 2 2 3 2 2 1 1 1 2 2 3 3 2 2 2 2 3 3 2 2 2 2 3 3 3 2 2 2 2 3 3
1 1 1 2 2 2 2 2 2 2 2 2 2 2 3 2 2 2 1 2 2 2 1 2 2 2 2 2 2 2 2 2 2 2 2 2 3 3 2 2 2 2 2
2 2 2 2 2 2 2 3 2 2 2 3 2 2 2 2 2 2 2 2 1 1 1 1 1 1 1 1 1 1 2 2 2 2 2 2 3 2 2 2 2 3 3
3 3 2 2 2 2 2 2 2 2 2 3 3 3 3 2 2 2 2 2 1 1 1 1 1 1 1 1 1 1 2 2 2 2 2 2 2 2 2 2 3 3 3
2 2 3 3 2 2 3 3 2 2 2 3 3 3 3 3 3 3 3 2 2 2 2 2 2 2 2 2 1 1 1 1 2 2 2 2 2 2 3 2 3 4 4
3 3 3 3 3 4 4 4 3 2 2 3 3 3 3 3 2 2 3 2 2 2 3 3 3 3 2 2 2 1 1 1 2 2 1 1 2 2 3 3 4 4 4
3 3 3 3 3 4 3 3 3 2 2 3 3 3 3 3 2 2 2 2 2 2 3 3 3 3 3 3 3 3 2 1 2 1 0 1 2 2 3 3 3 4 4
2 2 2 3 3 3 2 2 1 1 1 3 3 3 3 3 3 2 1 1 2 3 3 1 1 1 1 1 3 2 1 1 1 1 0 1 1 2 2 2 2 3 3
2 2 2 2 2 2 2 2 1 1 1 2 3 2 2 2 2 1 1 1 2 3 2 2 2 2 1 1 3 3 3 2 1 1 1 1 1 1 1 1 2 2 3
Wind_Direction
247 277 293 294 295 287 269 266 265 267 272 268 256 246 243 243 246 248 253 255 254 251 247 246 245 247 244 241 236 236 237 234 230 230 230 230 233 233 233 231 231 230 228
216 249 291 307 306 299 283 270 264 262 272 272 274 264 248 246 249 249 252 259 257 252 252 254 249 252 252 244 239 240 241 240 233 233 234 235 236 238 237 234 233 233 231
210 218 254 292 299 307 309 303 304 302 288 280 278 280 259 253 255 256 258 261 263 260 255 254 255 258 255 249 243 241 240 240 237 236 236 236 237 239 240 236 235 237 235
207 199 231 281 305 320 326 308 302 318 303 294 278 281 276 261 257 257 257 265 267 266 264 261 260 261 257 250 243 239 236 236 238 240 239 239 238 239 239 236 236 239 238
201 181 240 292 332 341 326 296 294 244 286 295 287 292 289 263 261 267 265 263 261 264 266 273 269 269 262 250 244 242 238 235 237 241 242 241 239 237 235 234 235 236 237
53 101 286 333 25 5 334 317 295 283 255 290 311 314 300 283 269 259 258 258 259 263 269 273 276 277 274 265 256 251 246 241 242 244 246 245 242 239 235 233 234 233 235
353 112 308 353 76 154 272 301 286 319 322 340 352 333 328 320 306 266 254 259 275 270 271 272 274 274 276 277 268 259 254 251 250 249 251 250 247 240 237 235 236 238 237
316 252 207 246 170 184 6 10 25 289 328 19 105 7 342 340 342 326 294 238 270 284 284 274 264 265 273 277 278 266 261 265 264 257 256 255 250 244 239 237 239 241 239
309 271 242 213 217 168 218 263 180 170 225 324 103 151 171 272 314 325 325 321 312 289 285 287 276 273 270 269 278 285 278 281 279 275 264 256 254 252 249 247 243 244 241
344 313 18 209 209 187 226 263 193 208 182 257 305 273 221 205 239 310 316 318 314 299 288 285 292 282 276 271 276 289 289 284 284 288 290 273 261 259 259 257 251 247 244
348 348 34 52 298 250 263 286 282 219 203 205 216 239 249 279 230 230 284 309 313 290 281 278 280 281 284 278 284 293 293 292 291 295 299 298 285 271 265 265 264 255 251
339 341 351 340 292 280 270 262 251 241 233 220 222 206 204 214 228 216 246 281 291 292 288 282 271 278 286 291 299 308 294 291 288 285 290 293 295 285 273 267 263 258 258
315 314 315 295 287 281 271 261 256 269 256 237 232 240 235 244 236 213 223 260 282 300 312 296 272 278 281 289 295 304 302 302 299 296 295 295 289 282 279 283 275 265 263
257 284 303 298 293 294 291 259 252 266 279 259 262 251 251 260 245 221 209 214 275 297 302 289 285 272 286 288 284 287 292 295 296 294 290 292 291 278 268 276 286 278 268
246 314 312 309 309 304 296 240 266 278 276 269 276 277 276 274 254 244 224 211 208 265 288 287 291 299 299 296 302 293 286 297 304 302 298 292 296 284 270 264 274 282 288
268 276 292 294 307 316 309 262 280 293 295 293 280 300 302 286 282 265 237 227 214 217 256 275 263 291 310 308 310 308 302 316 324 326 323 310 299 296 290 276 280 284 287
233 226 239 258 290 309 307 288 292 311 299 306 314 302 298 301 306 298 260 231 233 219 245 280 274 291 295 310 327 324 315 316 320 332 339 334 322 308 298 287 284 288 293
231 223 220 232 259 279 290 278 280 294 290 297 302 304 301 314 321 317 280 247 242 233 226 263 292 295 294 307 319 316 325 323 304 336 339 347 345 343 336 315 302 298 299
231 232 216 227 251 263 264 268 261 261 258 263 270 274 288 304 304 305 289 275 264 259 237 247 282 285 294 318 323 322 338 346 338 345 347 2 11 10 2 2 351 333 316
215 227 233 243 250 252 254 263 263 257 262 265 259 257 267 260 263 275 275 272 263 260 274 259 282 304 293 312 326 329 334 335 336 356 356 354 2 8 17 17 4 358 344
229 231 233 249 253 243 247 249 255 262 268 276 284 283 272 268 271 273 273 258 235 229 230 243 276 307 299 331 310 301 308 318 313 351 345 356 3 2 353 351 357 356 351
244 237 238 239 245 252 257 249 241 249 266 270 279 290 292 291 297 308 308 274 217 218 222 225 240 251 265 264 274 277 299 334 317 348 349 341 6 350 340 345 357 359 357
239 242 244 241 245 258 270 273 270 259 261 269 272 284 293 301 318 306 317 317 291 260 226 220 232 240 243 232 215 238 245 263 276 306 344 326 343 334 328 337 348 0 4
245 249 246 246 253 264 279 291 294 277 275 277 272 267 274 290 294 289 294 309 304 292 267 238 234 239 238 221 208 215 227 261 293 275 293 290 315 310 316 323 347 6 2
254 256 246 239 252 276 294 306 325 289 295 293 285 277 266 270 273 248 228 291 314 312 311 319 277 296 293 167 161 148 155 173 302 279 247 248 291 309 306 299 333 356 357
241 243 247 243 248 273 297 307 301 227 283 297 300 296 285 287 281 218 203 218 285 294 310 330 350 357 14 120 149 172 183 199 239 263 223 227 270 309 309 303 311 328 344
Height
1527 1527 1527 1528 1528 1528 1528 1528 1528 1528 1528 1528 1528 1528 1528 1528 1528 1528 1527 1527 1527 1527 1527 1527 1527 1527 1527 1528 1528 1528 1528 1528 1529 1530 1530 1531 1531 1531 1532 1533 1534 1535 1536
1527 1527 1527 1527 1527 1527 1528 1527 1527 1527 1527 1527 1527 1527 1527 1526 1527 1527 1526 1526 1526 1526 1525 1525 1525 1525 1525 1525 1525 1526 1526 1526 1526 1527 1527 1528 1528 1528 1528 1529 1530 1531 1532
1527 1527 1527 1527 1527 1527 1527 1527 1527 1526 1526 1526 1526 1526 1525 1525 1526 1526 1525 1525 1525 1524 1524 1524 1523 1523 1523 1522 1523 1523 1523 1523 1523 1524 1524 1525 1525 1524 1524 1525 1526 1527 1528
1527 1527 1527 1527 1527 1527 1526 1526 1526 1525 1525 1524 1524 1524 1524 1524 1524 1524 1524 1524 1523 1523 1522 1522 1521 1521 1521 1521 1521 1521 1521 1521 1521 1521 1521 1521 1521 1521 1521 1521 1523 1524 1524
1527 1527 1527 1526 1527 1526 1526 1526 1525 1525 1524 1523 1523 1523 1523 1523 1523 1523 1522 1522 1522 1521 1521 1520 1520 1519 1519 1518 1518 1518 1518 1518 1518 1518 1518 1518 1518 1518 1518 1518 1519 1520 1521
1527 1526 1526 1526 1526 1526 1525 1525 1524 1524 1523 1522 1522 1521 1521 1521 1521 1521 1521 1520 1520 1520 1519 1519 1518 1517 1517 1516 1516 1516 1516 1516 1515 1515 1515 1515 1515 1515 1515 1515 1516 1517 1518
1526 1526 1526 1525 1525 1525 1525 1524 1523 1523 1522 1522 1521 1520 1520 1519 1519 1519 1518 1518 1518 1518 1518 1517 1516 1516 1515 1515 1514 1514 1513 1513 1513 1512 1512 1511 1511 1511 1512 1513 1513 1514 1515
1525 1525 1525 1524 1524 1524 1523 1523 1522 1522 1521 1521 1520 1519 1518 1519 1517 1517 1516 1516 1516 1516 1516 1515 1515 1514 1513 1513 1512 1511 1511 1510 1510 1509 1509 1508 1508 1508 1509 1509 1510 1510 1511
1524 1524 1524 1523 1523 1522 1522 1522 1521 1521 1520 1520 1519 1519 1518 1516 1515 1515 1515 1514 1514 1514 1514 1513 1513 1512 1511 1510 1510 1509 1508 1507 1507 1506 1505 1505 1505 1505 1506 1506 1506 1507 1508
1523 1523 1523 1522 1522 1521 1521 1520 1520 1520 1519 1518 1518 1518 1517 1516 1516 1514 1514 1513 1512 1512 1512 1511 1510 1510 1509 1508 1507 1507 1506 1505 1504 1503 1503 1502 1502 1502 1503 1503 1503 1504 1504
1522 1522 1521 1521 1520 1520 1520 1519 1519 1518 1518 1517 1517 1516 1515 1515 1514 1513 1511 1511 1510 1510 1509 1509 1508 1508 1507 1506 1505 1505 1504 1503 1502 1501 1500 1500 1499 1499 1499 1499 1500 1500 1500
1520 1520 1520 1519 1519 1519 1519 1518 1517 1517 1516 1516 1515 1514 1514 1513 1512 1511 1510 1508 1507 1507 1507 1506 1506 1505 1505 1504 1503 1502 1501 1501 1500 1499 1498 1497 1497 1497 1497 1496 1496 1497 1497
1518 1518 1518 1518 1518 1518 1517 1516 1516 1515 1515 1514 1513 1513 1512 1511 1510 1509 1508 1506 1505 1504 1504 1504 1503 1503 1502 1501 1501 1500 1499 1498 1497 1496 1496 1495 1494 1494 1494 1493 1493 1493 1493
1517 1517 1517 1517 1517 1516 1516 1515 1514 1513 1513 1512 1511 1511 1510 1509 1508 1507 1506 1505 1503 1502 1501 1501 1501 1500 1500 1499 1498 1497 1496 1496 1495 1494 1493 1493 1492 1491 1491 1491 1490 1490 1490
1515 1515 1515 1515 1515 1514 1514 1513 1512 1511 1511 1510 1509 1508 1507 1506 1505 1504 1504 1503 1502 1500 1499 1498 1498 1498 1497 1496 1495 1495 1494 1493 1492 1491 1490 1490 1489 1489 1488 1488 1488 1487 1487
1513 1513 1513 1513 1512 1512 1511 1510 1509 1509 1508 1507 1507 1506 1505 1504 1503 1502 1501 1500 1499 1499 1497 1496 1496 1495 1494 1493 1492 1491 1491 1490 1489 1489 1488 1487 1487 1486 1485 1485 1485 1484 1484
1512 1511 1511 1510 1509 1509 1509 1508 1507 1506 1505 1505 1504 1503 1502 1501 1500 1499 1498 1497 1497 1496 1494 1493 1493 1492 1491 1490 1489 1488 1488 1487 1486 1486 1485 1484 1484 1483 1483 1482 1482 1481 1481
1509 1509 1509 1508 1507 1506 1506 1505 1504 1503 1502 1501 1501 1500 1499 1498 1497 1496 1496 1494 1494 1493 1492 1490 1489 1489 1488 1487 1486 1485 1484 1484 1483 1483 1482 1481 1481 1480 1480 1479 1479 1479 1478
1507 1506 1506 1505 1504 1503 1503 1502 1501 1500 1499 1498 1498 1497 1496 1495 1494 1493 1493 1492 1491 1490 1489 1488 1487 1486 1485 1484 1483 1482 1482 1481 1480 1480 1480 1479 1478 1478 1477 1477 1476 1476 1476
1504 1504 1503 1502 1501 1500 1499 1499 1498 1497 1496 1495 1494 1494 1493 1492 1491 1491 1490 1489 1488 1487 1486 1485 1484 1484 1483 1482 1481 1480 1479 1479 1478 1478 1477 1477 1476 1475 1474 1474 1474 1474 1473
1501 1501 1500 1499 1498 1497 1496 1496 1495 1494 1493 1492 1492 1491 1490 1489 1488 1488 1487 1486 1485 1485 1484 1483 1481 1481 1480 1479 1479 1478 1477 1477 1476 1475 1475 1474 1474 1473 1472 1472 1471 1471 1470
1498 1497 1496 1495 1494 1493 1493 1492 1492 1491 1490 1489 1488 1488 1487 1486 1485 1484 1484 1483 1482 1482 1480 1480 1479 1478 1478 1477 1477 1476 1475 1474 1473 1474 1473 1472 1471 1471 1470 1470 1469 1468 1468
1495 1494 1493 1491 1490 1490 1489 1489 1488 1488 1487 1486 1485 1485 1484 1483 1482 1481 1480 1480 1479 1478 1478 1478 1477 1476 1475 1475 1474 1473 1473 1472 1472 1471 1470 1470 1469 1469 1469 1468 1467 1467 1466
1491 1490 1488 1488 1487 1486 1486 1485 1485 1484 1484 1483 1482 1481 1480 1479 1479 1478 1477 1476 1476 1475 1475 1474 1474 1474 1473 1473 1472 1471 1470 1470 1470 1469 1468 1468 1467 1467 1467 1466 1466 1465 1464
1487 1486 1485 1484 1484 1483 1483 1482 1482 1481 1480 1479 1479 1478 1477 1476 1476 1475 1474 1473 1473 1473 1472 1471 1471 1471 1471 1470 1469 1469 1468 1467 1467 1466 1466 1465 1465 1464 1464 1464 1463 1463 1462
1484 1483 1482 1481 1480 1480 1479 1479 1478 1477 1477 1476 1476 1475 1474 1474 1473 1472 1471 1471 1470 1470 1469 1468 1468 1468 1467 1467 1466 1466 1465 1465 1464 1464 1463 1463 1463 1462 1462 1461 1461 1461 1460